Starlink 31452

operational
NORAD ID: 59527 Int'l Des: 2024-073 Owner: SPXS Country: US Constellation: starlink
LEOCIRCULAR

Über Starlink 31452

Beschreibung wird geladen...

Live-Position

3D-Globus wird geladen...

Nächste Überflüge

Höhenverlauf

Altitude vs Time

uPlot chart will show altitude changes over time

Zweizeiliger Elementsatz

1 59527U 24073S 25354.18831772 .00009365 00000-0 34997-3 0 9998
2 59527 43.0007 47.2857 0000924 262.3285 97.7461 15.27524552 94016
Epoch: 20. Dez. 2025 • Age: 4 hours

Aktueller Status

Höhe 495.9 km
Geschwindigkeit 7.62 km/s
Subsatellitenpunkt -43.16°S, 94.07°E
Startdatum 17. Apr. 2024
Alter 1.6 years
Typ internet

Technische Details

Klassifizierung Payload
Masse 730.00 kg
Trockenmasse 700.00 kg
Gesamtmasse 730.00 kg
Länge 0.30 m
Durchmesser 4.10 m
Spannweite 29.00 m
Form Box + pan
Hersteller SPXS
Bus-Typ Starlink V2M
Phasenstatus In Orbit
Besitzer/Staat SPXS/US

Große Konstellationen

Loading constellations...